Reflectivity
14 16 8 6 17 -8 9 22 13 7 2 33 31 18 13 -9 0 -20 -20 -20 -20 -20 -20 -20 -20 -20 -20 -20 -20 -20 -20 -20 -20 -20 -20 -20 -20 -20 -20 -20 -20 -18 22 -12
16 13 15 13 -13 -14 -1 18 13 3 3 4 1 -11 -3 7 -19 -20 -20 -20 -20 -20 -20 -8 -20 -20 -20 -20 -20 -20 -20 -20 -20 -20 -20 -20 -20 -20 -20 -20 -20 -12 8 -15
14 -1 32 10 -6 -9 19 6 19 9 20 2 -20 13 5 23 -4 -16 -20 -20 -11 -5 -20 -20 -19 -20 -20 -20 -20 -20 -20 -20 -20 -20 -20 -20 -20 -20 -20 -20 2 -12 -20 -17
18 17 34 15 -20 -20 20 10 22 -14 10 13 8 -2 -19 -17 -20 -20 -20 -1 -3 -15 -20 -20 -20 -20 -20 -20 -20 -20 -20 -20 -20 -20 -20 -20 -20 -20 -20 -20 -20 -19 -20 -20
22 17 38 27 12 17 29 -15 0 -16 5 -17 15 25 19 20 15 -9 -19 -0 -2 -20 -20 -20 -20 -20 -20 -20 -20 -20 -20 -20 -20 -20 -20 -20 -20 -20 -20 -20 -20 -20 -20 -20
24 22 26 38 7 25 34 4 -20 6 -20 16 9 8 11 -12 -11 -13 22 16 -13 -20 -20 -20 -20 -20 -20 -20 -20 -20 -20 -20 -20 -20 -20 -20 -20 -20 -20 -20 -20 -20 -20 -20
24 33 33 35 35 16 -9 -18 -20 -20 -8 -17 7 -2 5 17 37 21 19 8 -20 -20 -20 -20 -18 -20 -20 -20 -20 -20 -20 -20 -20 -20 -20 -20 -20 -20 -20 -20 -20 -20 -20 -20
23 35 32 33 41 22 -19 16 -12 -20 6 -20 -20 -19 -2 13 8 0 0 -4 -20 -20 -20 -20 -20 -20 -20 -20 -20 -20 -20 -20 -20 -14 -20 -20 -20 -20 -20 -20 -20 -20 -20 -20
22 32 37 23 39 33 -1 20 22 -20 -20 -11 4 -16 16 -14 -8 2 -18 -20 -20 -20 -20 -20 -20 -20 -20 -20 -20 -20 -20 -20 -20 -1 4 -4 -20 -16 -19 -20 -20 -20 -20 -17
24 18 37 18 35 32 16 -5 -20 -15 16 -20 -20 3 -15 -13 11 -4 -3 -7 -20 -20 -20 -20 -20 -20 -20 -20 -20 -3 -14 -14 -1 4 9 -2 -20 -16 -20 -12 0 -8 -20 -20
9 -1 36 27 27 33 22 4 31 4 18 17 17 -16 1 5 9 16 -19 -5 -17 -20 -20 -20 -20 -20 -20 -20 -20 -20 -10 8 10 -1 11 9 -6 -20 -20 -13 -20 0 -14 10
7 14 38 37 14 19 16 11 15 11 12 26 4 10 -20 -20 -16 -20 -20 -20 -20 -20 -20 -20 -20 -20 -20 -20 -5 -20 -20 -20 -20 -17 5 -20 -3 -20 -20 -20 -20 -20 -20 -20
13 28 40 40 26 20 13 3 4 -15 14 24 13 -13 -20 -20 -20 -20 2 -8 -19 -19 -20 4 16 -12 -14 8 -20 -20 -20 -20 -20 -15 -20 -20 -20 -20 -20 -20 -20 -20 -20 -7
18 20 36 33 33 19 10 21 3 -12 4 29 17 -20 -20 -20 -20 -20 -20 8 -14 3 -20 19 17 12 -20 -14 -4 22 -11 -1 -17 -20 -20 -20 -20 -20 -20 -20 -20 -20 -12 -20
24 26 29 26 33 32 23 15 19 5 12 17 16 1 -20 -20 -20 -20 -20 -20 1 20 21 18 15 -20 3 -20 -20 -2 -20 -20 16 1 -20 -9 -9 -20 -20 -20 -20 -20 -20 -20
34 38 38 39 34 32 23 11 -3 -16 3 -16 4 6 -20 -20 -19 3 2 -20 -19 20 8 4 2 -20 9 12 4 -20 -20 -20 -20 -20 -20 -20 -19 -20 -20 -20 -20 -20 -20 -7
33 29 14 5 2 11 -1 -19 -20 -20 -20 -18 -4 11 -20 -20 0 15 8 -6 2 18 10 6 6 10 13 15 9 -20 -20 -20 -20 -20 -20 -20 -20 -20 -20 -20 -20 -20 -20 -20
12 8 11 5 -17 -13 -8 -12 -17 -20 -4 -8 12 19 4 -20 7 9 11 8 13 10 5 -4 6 -6 14 12 -12 -20 -20 -20 -20 -20 -20 -20 -20 -20 -20 -20 -20 -20 -20 -20
6 -9 -20 -20 0 7 21 -2 -20 -13 -6 5 5 -16 4 -17 19 19 20 20 20 -13 10 -0 -12 -9 -13 -20 -20 -20 -20 -20 -20 -20 -20 -20 -20 -20 -20 -20 -20 -20 -20 -20
-20 -20 -9 4 -8 -20 -20 14 6 -2 16 9 7 -20 20 -20 -13 8 5 -11 2 9 8 -4 12 -17 -20 -20 -20 -20 -20 -20 -20 -20 -20 -20 -20 -20 -20 -20 -20 -20 -20 -20
-12 -17 -10 13 -20 -3 22 1 5 18 10 -17 -20 -20 5 -20 11 17 -17 14 -5 5 -20 16 4 -20 -20 -20 -20 -20 -20 -20 -20 -20 -20 -20 -20 -20 -20 -20 -20 -20 -20 -20
5 8 15 18 13 10 -20 19 15 11 6 7 -20 -20 -20 13 19 16 13 -5 5 9 3 21 6 -20 -20 -20 -20 -20 -20 -20 -20 -20 -20 -20 -20 -20 -20 -20 -20 -20 -20 -20
-11 -1 -4 21 2 17 -7 0 15 9 24 9 -2 11 22 15 -20 14 20 -15 5 -10 19 9 -20 -20 -20 -20 -20 -20 -20 -20 -20 -20 -20 -20 -20 -20 -20 -20 -20 -20 -20 -20
-6 -14 -6 -13 20 15 15 13 17 -18 -20 -13 -5 21 19 5 15 17 -3 -17 -5 17 20 -19 -19 -20 12 -20 -20 -20 -20 -20 -20 -20 -20 -20 -20 -20 -20 -20 -20 -20 -20 -20
19 -9 -3 -2 -6 4 -20 -14 23 5 -19 19 22 21 19 18 7 -20 -20 12 9 -19 -20 -13 -10 -20 -20 -20 -20 -20 -14 -20 -20 -20 -20 -20 -20 -20 -20 -14 -11 -20 -20 -20
19 -20 16 13 0 -14 -1 -18 6 21 -20 -6 -1 -12 21 13 16 19 -6 -17 5 -2 5 10 -20 -20 -20 -15 -14 -20 -20 -20 -20 -20 -20 -20 -20 -20 -20 -20 -20 -20 -20 -20
14 -18 6 1 20 18 -2 -19 -20 -20 13 -20 -8 -15 21 23 19 6 16 -20 -20 24 -20 -20 -20 -20 -20 -20 -20 -20 -20 -20 -20 -20 -20 -20 -20 -20 -20 -20 -20 -20 -20 -20
Wind_Speed
21 21 20 20 18 17 13 3 7 6 9 7 4 11 13 7 12 10 6 6 7 10 8 13 10 9 8 5 8 8 4 4 8 13 7 4 8 14 13 9 14 12 7 12
21 22 23 22 21 23 9 3 3 2 3 8 6 8 16 8 13 14 9 8 5 1 7 4 7 7 6 5 7 2 6 7 7 12 11 7 9 7 4 8 9 14 12 9
22 24 25 25 24 24 12 3 5 3 3 8 17 19 16 13 14 12 6 5 5 7 7 5 9 9 6 6 4 8 0 7 9 9 11 7 8 11 10 12 8 14 19 22
22 26 27 27 26 26 9 5 8 10 9 11 9 15 11 17 13 12 13 8 11 10 8 10 9 10 10 9 9 6 5 8 11 12 13 14 16 16 16 18 18 19 23 22
23 26 27 26 26 26 7 7 8 11 9 19 18 12 13 22 23 16 15 13 15 12 12 11 10 12 10 10 12 10 9 6 4 9 14 17 20 14 18 22 22 23 24 26
23 24 28 29 29 25 4 9 11 6 12 19 14 12 11 16 11 6 11 14 11 11 14 11 2 4 2 2 8 9 9 7 8 13 11 10 14 8 16 18 18 18 19 21
26 25 21 23 27 29 4 7 7 8 8 13 20 24 19 12 17 10 8 9 12 6 7 6 3 6 8 10 11 10 9 10 9 11 11 15 10 6 8 12 15 18 16 12
29 32 27 24 29 28 5 6 8 6 7 10 11 10 19 12 10 8 9 6 2 6 6 6 6 7 9 15 18 17 15 12 9 10 11 14 12 17 14 7 15 17 8 9
29 28 32 29 29 26 7 6 3 5 7 8 8 11 12 7 10 9 5 7 6 5 6 5 9 7 10 7 6 14 17 15 12 11 12 10 5 2 5 8 15 7 3 5
29 16 32 31 30 29 11 3 5 2 3 3 14 11 14 10 9 8 10 11 7 5 6 7 9 10 6 8 10 8 11 14 15 13 13 12 10 5 3 8 3 3 6 8
23 17 25 30 30 26 11 5 6 3 2 5 8 7 15 9 12 9 11 8 7 8 9 7 7 6 8 11 12 11 12 10 11 12 16 20 1 4 7 7 6 8 10 12
25 28 23 25 28 25 14 4 5 7 5 1 3 5 6 8 9 3 10 4 12 7 9 8 7 6 6 11 11 13 13 11 9 8 5 3 4 7 12 14 13 12 12 9
29 25 25 28 27 24 11 7 9 7 4 2 4 8 7 4 3 3 5 4 2 4 2 3 3 6 4 9 11 13 11 11 10 8 6 11 10 13 15 13 8 9 10 9
31 29 30 31 24 22 17 8 5 5 6 3 6 3 12 7 6 5 5 2 3 2 4 4 4 5 4 9 9 9 7 4 9 14 14 13 15 11 8 9 6 7 5 7
29 26 24 24 22 19 9 10 10 4 0 5 5 6 11 9 9 9 7 5 4 4 4 4 6 6 5 8 10 11 11 13 11 12 14 14 11 11 10 9 9 7 5 6
28 29 30 28 23 20 9 4 2 2 4 3 4 4 10 12 13 12 10 7 5 5 4 4 6 11 8 8 13 16 19 20 21 17 19 15 7 7 10 10 7 6 7 9
29 27 26 22 16 5 4 4 4 8 2 2 4 5 6 11 10 9 7 10 6 6 3 6 10 8 6 11 16 17 18 17 17 19 16 16 18 11 7 8 7 7 8 8
25 25 24 18 19 12 6 7 13 7 4 2 3 4 6 11 5 4 7 5 6 4 6 7 8 9 10 12 14 18 20 21 21 22 21 21 18 5 7 9 10 10 9 9
25 26 23 9 3 3 6 15 7 3 3 4 4 8 6 9 7 5 4 4 5 5 7 10 8 11 13 10 15 19 19 18 18 16 14 11 8 10 10 11 11 10 10 10
26 14 5 4 3 26 18 3 2 1 3 4 5 7 6 9 8 7 5 2 5 7 8 6 8 16 22 24 25 22 21 20 18 17 13 10 13 13 13 12 11 10 10 11
5 3 4 5 19 6 3 5 6 7 5 6 8 11 9 7 10 7 5 4 5 5 7 7 5 9 15 20 22 21 21 21 21 17 11 10 13 12 12 12 11 8 11 11
6 9 6 4 4 3 6 6 5 7 8 8 12 12 9 7 5 5 4 5 5 6 1 3 5 9 11 9 9 8 10 11 14 15 11 8 8 10 12 12 10 10 11 10
6 4 5 5 4 7 7 10 4 6 4 7 10 11 8 4 4 3 4 5 7 3 4 5 6 8 1 6 7 7 7 6 7 8 8 9 9 10 11 10 9 12 11 11
3 5 6 5 7 4 4 7 8 5 8 10 10 9 5 5 6 4 5 6 3 5 5 9 6 6 5 5 4 2 5 7 9 8 9 10 10 11 11 11 11 12 12 13
4 5 5 8 4 7 6 5 8 8 10 10 8 6 4 6 5 5 6 5 7 7 11 6 4 5 5 3 2 5 5 7 8 9 10 10 10 10 10 9 9 10 12 12
3 3 3 5 9 5 4 5 6 7 8 7 4 3 3 7 5 7 9 8 6 3 3 3 2 2 2 2 4 6 7 8 8 8 10 10 9 10 12 11 10 10 11 12
4 1 2 5 6 6 6 8 8 8 9 6 4 7 6 5 5 6 5 7 6 4 2 2 3 3 3 5 7 7 8 8 9 10 10 10 10 11 11 11 10 10 10 10
Wind_Direction
220 208 196 186 184 176 168 235 209 156 164 188 184 211 214 314 194 192 190 274 234 231 158 213 215 216 180 183 174 197 169 229 252 242 220 302 294 286 280 260 271 277 298 269
227 209 196 186 184 179 177 216 170 137 230 200 213 220 230 226 210 196 183 183 217 175 186 179 192 208 79 169 202 216 167 224 252 231 204 211 254 233 282 309 300 267 272 271
230 209 203 184 188 185 209 168 184 135 211 266 228 198 215 206 202 214 187 169 183 175 170 190 195 185 165 191 168 54 44 252 257 276 312 313 276 269 243 251 251 276 262 282
231 213 205 187 188 184 195 209 215 171 181 214 224 210 208 205 191 214 205 186 208 196 207 204 206 198 154 190 135 206 248 255 271 276 287 285 277 270 268 261 263 258 281 280
232 215 200 189 187 179 203 175 235 180 206 207 210 199 210 211 210 184 204 217 205 210 222 210 214 209 194 198 187 226 233 247 286 286 276 269 268 262 264 259 266 270 277 281
242 209 198 198 181 171 162 235 216 257 215 182 185 201 194 217 164 225 241 217 204 218 229 250 56 328 312 227 218 208 223 225 235 268 271 280 259 234 242 263 264 266 270 284
220 220 195 192 192 185 121 229 178 220 219 211 200 204 205 202 197 171 183 200 200 97 97 95 160 234 234 237 230 247 233 233 251 272 287 272 277 216 247 255 265 269 281 339
224 213 198 202 193 179 158 197 222 216 204 204 196 202 210 188 182 182 193 188 56 134 164 200 213 209 225 231 233 229 228 243 254 252 253 268 263 246 251 312 297 293 321 320
225 208 190 189 185 174 154 199 271 243 222 204 174 172 161 170 185 163 164 118 132 188 221 229 229 224 213 187 187 212 220 224 238 232 249 266 245 181 107 315 282 45 344 354
213 213 188 185 181 174 167 131 194 155 211 213 166 176 175 167 203 203 183 168 181 216 203 224 234 234 238 236 211 170 204 211 222 236 256 264 279 70 37 251 7 320 333 320
185 196 179 176 168 167 147 125 166 127 84 142 206 154 167 183 197 180 143 158 203 186 221 227 218 245 236 231 258 223 192 204 218 233 252 262 265 113 237 340 293 283 301 319
179 183 173 169 151 155 125 114 151 130 92 94 357 36 24 189 221 209 178 323 179 185 209 223 239 221 230 236 242 227 252 230 245 233 246 66 200 254 279 288 296 309 322 320
170 159 160 149 142 146 121 126 140 117 95 114 203 192 175 205 204 324 195 213 236 243 345 289 290 257 276 235 240 258 239 240 249 277 279 286 305 303 300 302 299 306 305 291
156 156 151 138 136 131 128 137 177 133 127 152 185 169 175 186 190 206 239 359 141 220 223 239 240 238 225 267 286 267 270 259 258 255 255 275 280 284 330 316 287 264 283 264
136 136 132 129 134 133 130 147 167 154 154 165 134 173 207 188 200 188 190 209 224 229 233 231 237 252 277 262 269 264 264 259 251 256 253 255 281 314 302 283 264 255 216 214
132 148 151 139 132 136 123 86 147 162 302 127 148 76 170 200 213 221 226 224 230 256 265 266 265 264 256 261 253 246 242 251 262 274 270 262 263 279 281 251 224 203 199 200
123 129 135 122 139 115 51 62 94 144 135 99 139 159 167 183 195 216 222 214 225 239 237 240 249 234 233 255 255 264 263 259 260 260 263 258 275 268 247 234 195 180 182 190
114 115 123 122 98 123 88 42 115 153 88 271 188 130 147 177 178 199 219 219 223 224 241 253 252 244 246 251 248 248 250 255 258 262 264 268 268 285 209 203 178 182 181 180
114 113 112 109 67 90 93 96 110 29 303 202 211 173 167 166 203 191 175 210 223 237 236 231 243 231 228 241 244 244 251 255 262 260 259 263 225 227 212 195 189 192 182 173
121 130 77 102 135 109 119 84 82 347 258 241 220 215 153 186 175 183 166 198 235 240 226 225 232 244 254 254 253 255 256 259 264 266 249 219 218 215 204 195 191 192 178 175
110 110 73 97 147 159 156 147 191 184 209 213 218 205 159 188 185 191 212 187 237 243 230 214 241 255 247 248 250 255 257 258 255 250 246 224 224 207 186 181 182 175 164 166
116 93 86 135 194 179 189 191 186 215 217 184 197 182 183 165 182 205 195 220 232 245 131 228 254 262 266 282 288 299 304 265 243 237 205 206 198 182 170 168 166 159 154 141
129 149 152 189 170 202 212 181 212 203 167 188 176 174 151 128 196 218 199 225 237 308 224 240 258 272 216 335 328 320 316 289 256 158 162 166 163 153 150 133 118 121 128 134
154 172 142 212 179 204 211 210 194 161 169 177 173 171 176 157 177 210 232 228 230 237 228 247 262 37 354 328 316 326 27 45 71 80 92 95 99 100 104 119 128 134 150 157
225 175 188 197 209 182 205 210 168 158 158 164 146 162 190 172 184 206 231 231 230 218 241 272 52 9 328 312 300 107 112 99 98 107 111 113 116 116 114 120 134 137 143 148
248 221 225 214 179 182 187 230 195 179 157 155 185 155 232 210 209 202 211 231 227 216 253 43 9 354 282 146 116 124 122 120 120 121 124 118 121 130 129 128 130 136 144 146
269 250 325 279 229 196 190 190 199 179 184 195 197 172 233 213 216 207 223 238 267 14 48 347 328 280 177 149 121 114 121 122 122 124 127 123 122 128 131 129 133 134 135 135